Location: JKWMA (FRAC)
(33.1803°N, 84.5512°W)
Time: 04:48:08
(UTC-04:00)

Hubble Space Telescope - Pass Details

Date: 25 March 2019
Orbit: 536 x 540 km, 28.5° (Epoch: 16 October)

Event Time Altitude Azimuth Distance (km) Brightness Sun altitude
Rises 20:44:45 0° 236° (SW) 2,668 5.1 -11.5°
Reaches altitude 10° 20:47:14 10° 224° (SW) 1,780 3.9 -12.0°
Maximum altitude 20:50:45 27° 165° (SSE) 1,035 2.0 -12.7°
Enters shadow 20:52:41 19° 123° (ESE) 1,307 2.2 -13.1°
